Regional Weather Roundup
Issued by NWS

Home | Current Version | Previous Version | Graphics & Text | Print | Product List | Glossary On
Versions: 1 2 3 4 5 6 7 8 9 10 11 12 13 14 15 16 17 18 19 20 21 22 23 24 25 26 27
000
ASUS45 KBOU 220007
RWRCO

WEATHER ROUNDUP FOR COLORADO
NATIONAL WEATHER SERVICE DENVER/BOULDER CO
600 PM MDT SAT OCT 21 2017

NOTE: "FAIR" INDICATES FEW OR NO CLOUDS BELOW 12000 FEET WITH NO
SIGNIFICANT WEATHER AND/OR OBSTRUCTIONS TO VISIBILITY.

COZ001>005-013-030-031-220100-
...NORTHWEST COLORADO...

CITY           SKY/WX    TMP DP  RH WIND       PRES   REMARKS
CRAIG          FAIR      39  25  57 SW8       30.21R
HAYDEN         FAIR      40  22  48 SW9       30.23R
MEEKER         FAIR      44  22  41 SE5       30.21R
RABBIT EARS PA FAIR      19  18  93 W12G21    30.19R WCI   7
STEAMBOAT SPGS FAIR      38  19  45 W9        30.21R
WALDEN         NOT AVBL
$$

COZ006>008-011-220100-
...WEST CENTRAL VALLEYS...

CITY           SKY/WX    TMP DP  RH WIND       PRES   REMARKS
GRAND JUNCTION FAIR      53  10  18 NW9       30.20R
MONTROSE       FAIR      50  12  21 N6        30.24R
EAGLE          FAIR      43  16  33 W8        30.23R
RIFLE          FAIR      50  17  27 W7        30.21R
DELTA          FAIR      56   2  11 W9        30.20R
NUCLA          FAIR      52   1  12 W7        30.25R
$$

COZ017>023-064>068-220100-
...SOUTHWEST COLORADO...

CITY           SKY/WX    TMP DP  RH WIND       PRES   REMARKS
DURANGO        FAIR      51   3  14 W22       30.15R
CORTEZ         FAIR      53  -1  11 NW13      30.21R
PAGOSA SPRINGS FAIR      51  -5  10 SW9G16    30.18R
TELLURIDE      FAIR      38   5  24 W8        30.29R
WOLF CREEK PAS FAIR      30   0  27 SW14G21   30.33R WCI  20
$$

COZ009-010-012-014-032>034-037-058>063-220100-
...CENTRAL COLORADO...

CITY           SKY/WX    TMP DP  RH WIND       PRES   REMARKS
ASPEN          FAIR      34  22  61 SW5       30.22R WCI  30
BUENA VISTA    FAIR      40   4  22 NW7       30.17R
COPPER MTN     FAIR      21   9  58 MISG      30.23R
BERTHOUD PASS  FAIR      12   1  62 NW39G48   30.14R WCI -12
COTTONWOOD PAS FAIR      37   9  30 W10G23    30.20R
GUNNISON       FAIR      41   6  23 W9        30.23R
KREMMLING      FAIR      43  12  28 W7        30.22R
LEADVILLE      FAIR      26   8  46 N9        30.22R WCI  17
MONARCH PASS   FAIR      23  10  58 W35G40    30.32R WCI   4
SALIDA         FAIR      44  12  26 SW15      30.23R
SUNLIGHT       FAIR      23  18  80 SW7       30.30R WCI  15
WILKERSON PASS FAIR      27  -2  28 W10G20    30.21R WCI  17
$$

COZ069>075-220100-
...SAN LUIS VALLEY/SANGRE DE CRISTO MOUNTAINS...

CITY           SKY/WX    TMP DP  RH WIND       PRES   REMARKS
ALAMOSA        FAIR      46   2  16 N12       30.16R
DEL NORTE      FAIR      48   0  13 NW9       30.15R
LA VETA PASS   FAIR      34   5  29 S9G20     30.31R WCI  26
SAGUACHE       FAIR      41   9  26 NW21G26   30.19R
$$

COZ035-036-038>040-220100-
...NORTHERN COLORADO FRONT RANGE...

CITY           SKY/WX    TMP DP  RH WIND       PRES   REMARKS
DENVER INTL AP FAIR      49   7  18 NW8       30.09R
DMNS CITY PARK   N/A     49  10  20 NW12G18   30.10R
AURORA         PTCLDY    47  10  22 NW18G26   30.09R
FRONT RANGE AP PTCLDY    48  10  21 N8        30.10R
ERIE MUNI ARPT FAIR      48   9  20 N7        30.12S
BOULDER MUN AP FAIR      50  10  20 E5        30.07R
CENTENNIAL     FAIR      48   9  20 NW17      30.08R
BROOMFIELD     PTCLDY    48  12  23 CALM      30.09R
FORT COLLINS   FAIR      47  15  27 NW8       30.08R
LONGMONT       FAIR      50  12  21 W7        30.09R
$$

COZ041-046-047-076>085-087-088-220100-
...PIKES PEAK/PALMER DIVIDE AND SOUTHERN FOOTHILLS...

CITY           SKY/WX    TMP DP  RH WIND       PRES   REMARKS
COLO. SPRINGS  FAIR      51   2  13 NW10      30.09R
A. F. ACADEMY  FAIR      46   0  14 W10       30.10R
SCHRIEVER AFB  FAIR      47   5  17 NE5       30.11R
CHEYENNE MTN   FAIR      46   1  16 SW5       30.06R
ELLICOTT         N/A    N/A N/A N/A N7        30.09R
FALCON         FAIR      44   3  18 N8        30.12R
FORT CARSON    FAIR      53   0  11 W12       30.07R
LIMON          FAIR      46   7  20 N13       30.07R
MONUMENT HILL  FAIR      39   9  28 N5        30.12R
CANON CITY     FAIR      59  12  15 SW7       30.06R
WALSENBURG     FAIR      50  25  37 SE6       30.10R
TRINIDAD       FAIR      52  21  29 E6        30.09R
$$

COZ042>045-048>051-090-091-220100-
...NORTHEAST COLORADO...

CITY           SKY/WX    TMP DP  RH WIND       PRES   REMARKS
GREELEY ARPT   FAIR      49  13  23 NW16      30.09
AKRON          FAIR      48  10  21 NW20      30.07R
BURLINGTON     FAIR      53  11  18 NW16G24   30.06R
WRAY           FAIR      55  12  18 NW12G17   30.04R
YUMA           NOT AVBL
STERLING       NOT AVBL
HOLYOKE        FAIR      55  18  22 NW8       30.03R
FORT MORGAN    FAIR      49  10  20 NW18G25   30.09R
$$

COZ086-089-092>099-220100-
...SOUTHEAST COLORADO...

CITY           SKY/WX    TMP DP  RH WIND       PRES   REMARKS
PUEBLO         FAIR      59  18  20 S6        30.03R
LA JUNTA       FAIR      57  10  15 NE8       30.06R
LAMAR          FAIR      56  13  18 N9        30.03R
SPRINGFIELD      N/A     51  18  27 NE12      30.05R
$$




USA.gov is the U.S. government's official web portal to all federal, state and local government web resources and services.